カタログに戻る

COSMOS 1375 DEB

運用中LEO
NORAD 17806·DEBRIS·🇷🇺 Russia

打ち上げ Jun 6, 1982 から Plesetsk Cosmodrome

Loading…

次のパス (今後24時間)

TLE

最新Source: Space-Track

元期: Sep 14, 2026, 01:34 UTC

1 17806U 82055AY  26257.06542789 -.00000064  00000-0  16299-4 0  9997
2 17806  65.8335 213.6407 0048787 125.1994 323.6367 13.80810469 58960

AllMySatでCOSMOS 1375 DEBをリアルタイム追跡

Download on the App Store